STARLINK-6143, 57133

Orbit data source: Space-Track

STARLINK-6143, 57133 is a payload satellite owned by SpaceX/Seattle (US) in LEO that was launched on Fri, 23 Jun 2023 UTC via an FALCON 9 launch vehicle from the Air Force Eastern Test Range (AFETR). Payload-class satellites include a variety of spacecraft equipped with specific instruments for various scientific and technological missions. These include communications satellites like Starlink; space stations such as the ISS; scientific satellites like the Hubble; Earth observation satellites from companies like Planet Labs, Umbra, and HawkEye 360; GPS; miniature CubeSats for education and research; and military/defense satellites.

Loading next visibility...
Identifier
57133, 2023-090AJ
Orbit
LEO
Country
Flag of USUS
Related business
Manufacturer
SpaceX/Seattle
Mission
Operational Commercial Communications
Bus & Motor
STARLINK, Unknown motor
Mass
305 kg wet, ~290 kg dry
Launch date (UTC)
2023-06-23 (3 years ago)
Launch vehicle
FALCON 9
Launch site
Air Force Eastern Test Range (AFETR)
Object type
Payload
Rocket body
Debris
Shape & HBR
Box + 1 Pan, 10.1 m
Radar Cross Section
11.087 m², Large (>1 m²)

Expand to show TLE details & history
Last TLE update: 2 days ago

TLE from 2 days ago
0 STARLINK-6143
1 57133U 23090AJ  26171.34241536  .00000054  00000-0  11494-4 0  9990
2 57133  43.0025  43.5439 0001006 256.7470 103.3269 15.27578357166053
Epoch: 2026-06-20T08:13Z
TLE epoch observation values (Epoch: 2026-06-20T08:13:04.687Z)
Latitude
-0.00003°
Longitude
11.71592°
Altitude
482.989 km
Speed
7.626 km/s
True Right ascension
02h 54m 10s
True Declination
0° 00' 00"
Sunlit
Object was in daylight at epoch
Visualization orbit readout
Latitude
Unknown
Longitude
Unknown
Altitude
Unknown
Speed
Unknown
Apparent Right ascension
Unknown
Apparent Declination
Unknown
Sunlit
N/A
Visualization observer readout
Local Sidereal Time
21:42:23
Azimuth
Unknown
Elevation
Unknown
Doppler factor
Unknown
Orbital elements
Apogee altitude
485.689 km
Perigee altitude
484.308 km
Semi-major axis
6,863.136 km
Eccentricity
0.0001
Inclination
43.0025°
RAAN
43.5439°
Arg. of periapsis
256.747°
True anomaly
103.33812°
Mean anomaly
103.3269°
Eccentric anomaly
103.33251°
Mean motion
3.81733 °/min
Orbital period
94.31 mins
BSTAR
0.000011494
Loading maneuver chart data...
Computing Atmospheric mass density...
Loading historical data...
Loading historical data...
Loading historical data...
Loading historical data...
Loading historical data...
Loading historical data...
Loading historical data...

Documentation

Showing up to 5 results
|